星链-35734(STARLINK-35734)

导读

STARLINK-35734是美国SpaceX公司星链(Starlink)卫星互联网星座中的一员,于2025年10月28日由美国发射升空。星链计划旨在通过近地轨道部署大量卫星,为全球偏远和基础设施匮乏地区提供低延迟、高速宽带互联网服务。STARLINK-35734的入轨进一步扩充了星链星座规模,助力实现全球无缝网络覆盖的目标,推动卫星互联网服务的普及与应用拓展。

基本信息
目录编号:
66225
目录名称:
STARLINK-35734
国际标识:
2025-244V
轨道中心:
EARTH
卫星名称:
星链-35734
卫星全名:
星链-35734(STARLINK-35734)
卫星状态:
在轨 (已飞行311 天)
发射日期:
2025-10-28 UTC
国别 :
美国 (US)
星等 :
--
轨道信息
数据来源 国际轨道数据
星历时间: 2026-09-04T08:51:07+0800
11小时前
查看轨道信息
半长轴: 6840.817km
偏心率: 0.0000982
轨道倾角: 53.161°
近地点辐角 116.372°
升交点赤经 120.901°
平近点角 243.738°
近地点: 462.008km
远地点: 463.352km
周期: 93.847分钟
每日圈数: 15.344079
详细信息
固有亮度:
5
最大亮度:
2.5
卫星平台:
Starlink V1.0
覆盖范围:
全球
运营商:
太空探索技术公司
运营商所在国:
美国
制造商(研发单位):
太空探索技术公司
制造商所在国:
美国
使用方式:
暂无
卫星简介
Starlink 计划是 SpaceX 推出的全球卫星互联网项目,通过发射低轨道卫星,为全球尤其是偏远地区提供高速、低延迟的互联网服务。自 2019 年起,Starlink 已部署数千颗卫星,旨在缩小全球数字鸿沟,推动互联网普及。该项目还为军事、航空等行业提供通信支持,带来广泛经济效益。
2D轨道图
3D轨道图
轨道高度分析图
轨道倾角分析图
轨道综合分析图
查看轨道综合分析图
交会数据列表
事件ID 空间交会对象 最接近时刻(TCA) 交会距离 交会风险概率(CRP) 交会风险指数(CRI) 操作
CDM_260830-142605-717806-622524
OBJECT N (57178)
2026-08-30T
14:26:38+0000
0.678 km
远距离
9.367709E-5 中风险 0.74
CDM_260905-051606-622506-983921
2026-09-05T
05:16:33+0000
0.801 km
远距离
3.459535E-5 中风险 0.66
CDM_260905-034206-622506-983921
2026-09-05T
03:42:45+0000
0.824 km
远距离
3.157446E-5 中风险 0.65
CDM_260906-114405-921506-622521
2026-09-06T
11:44:58+0000
0.866 km
远距离
2.797814E-5 中风险 0.64
CDM_260906-101105-921506-622521
2026-09-06T
10:11:10+0000
1.595 km
极远距离
3.559096E-6 低风险 0.46
CDM_260906-020405-286006-622521
2026-09-06T
02:04:09+0000
2.616 km
极远距离
1.45067E-6 低风险 0.38
CDM_260905-020806-622506-983921
2026-09-05T
02:08:58+0000
2.414 km
极远距离
1.227256E-6 低风险 0.37
CDM_260905-065006-622506-983921
2026-09-05T
06:50:20+0000
2.426 km
极远距离
1.215935E-6 低风险 0.37
CDM_260906-131805-921506-622521
2026-09-06T
13:18:45+0000
2.780 km
极远距离
1.017577E-6 低风险 0.35